Showing default

OPS 7034 (TRANSIT 18), 3133

Orbit data source: Space-Track

OPS 7034 (TRANSIT 18), 3133 is a payload satellite owned by USN NAVAIR (US) in LEO that was launched on Sat, 02 Mar 1968 UTC via an SCOUT A launch vehicle from the Air Force Western Test Range (AFWTR). Payload-class satellites include a variety of spacecraft equipped with specific instruments for various scientific and technological missions. These include communications satellites like Starlink; space stations such as the ISS; scientific satellites like the Hubble; Earth observation satellites from companies like Planet Labs, Umbra, and HawkEye 360; GPS; miniature CubeSats for education and research; and military/defense satellites.

Loading next visibility...
Identifier
3133, 1968-012A
Orbit
LEO
Country
Flag of USUS
Related business
Manufacturer
RCA/East Windsor
Mission
Spacecraft
Bus & Motor
TRANSIT 5, Unknown motor
Mass
60 kg wet, 60 kg dry
Launch date (UTC)
1968-03-02 (58 years ago)
Launch vehicle
SCOUT A
Launch site
Air Force Western Test Range (AFWTR)
Object type
Payload
Rocket body
Debris
Shape & HBR
Unknown
Radar Cross Section
Large (>1 m²)

Expand to show TLE details & history
Last TLE update: 10 hours ago

TLE from 10 hours ago
0 OPS 7034 (TRANSIT 18)
1 03133U 68012A   25352.85273356  .00000104  00000-0  14195-3 0  9991
2 03133  90.0283 273.6562 0074446 151.4942 275.4365 13.51567077570013
Epoch: 2025-12-18T20:27Z
TLE epoch observation values (Epoch: 2025-12-18T20:27:56.179Z)
Latitude
66.16016°
Longitude
-121.09388°
Altitude
1,073.179 km
Speed
7.324 km/s
True Right ascension
18h 14m 22s
True Declination
66° 02' 17"
Sunlit
Object was in daylight at epoch
Visualization orbit readout
Latitude
Unknown
Longitude
Unknown
Altitude
Unknown
Speed
Unknown
Apparent Right ascension
Unknown
Apparent Declination
Unknown
Sunlit
N/A
Visualization observer readout
Local Sidereal Time
05:13:13
Azimuth
Unknown
Elevation
Unknown
Doppler factor
Unknown
Orbital elements
Apogee altitude
1,118.946 km
Perigee altitude
1,008.145 km
Semi-major axis
7,441.683 km
Eccentricity
0.00744
Inclination
90.0283°
RAAN
273.6562°
Arg. of periapsis
151.4942°
True anomaly
274.58653°
Mean anomaly
275.4365°
Eccentric anomaly
275.01159°
Mean motion
3.38093 °/min
Orbital period
106.48 mins
BSTAR
0.00014195
Loading maneuver chart data...
Computing Atmospheric mass density...
Loading historical data...
Loading historical data...
Loading historical data...
Loading historical data...
Loading historical data...
Loading historical data...
Loading historical data...

Documentation

Showing up to 5 results
|